Flag for U.S.A. Weather past 2 weeks in Cheyenne, Wyoming, U.S.A.

Now
60 °F

Broken clouds.


Feels Like: 60 °F
Forecast: 38 / 61 °F
Wind: 23 mph from Northwest

Location: Cheyenne Airport

Current Time: Apr 1, 2015 at 4:01:26 PM

Latest Report: Apr 1, 2015 at 2:53 PM


Visibility: 10 mi

Pressure: 29.59 "Hg

Humidity: 25%

Dew point: 24 °F

Location of CheyenneLocation

Historic Weather in Cheyenne — Graph

°F

Cheyenne temperature yesterday

Maximum temperature yesterday: 71 °F (at 2:53 PM)
Minimum temperature yesterday: 37 °F (at 2:53 AM)
Average temperature yesterday: 55 °F

Past Weeks' High & Low Weather Summary

 TemperatureHumidityPressure
High73 °F (Mar 28, 2:53 PM)93% (Mar 25, 8:53 PM)30.34 "Hg (Mar 25, 8:53 PM)
Low21 °F (Mar 26, 2:53 AM)10% (Mar 31, 5:53 PM)29.52 "Hg (Apr 1, 4:53 AM)
Average47 °F42%29.96 "Hg
* Reported Mar 17 2:53 PM — Apr 1 2:53 PM, Cheyenne, Weather by CustomWeather, © 2015

Note: Actual official high and low records may vary slightly from our data, if they occured in-between our weather recording intervals... More about our weather records

Advertising

Cheyenne weather history for previous 24 hours

 ConditionsComfort  
Time TempWeatherWind HumidityBarometerVisibility
2:53 PM
Wed, Apr 1
60 °FBroken clouds.23 mph25%29.59 "Hg10 mi
1:53 PM60 °FSunny.17 mph28%29.62 "Hg10 mi
12:53 PM58 °FOvercast.13 mph30%29.64 "Hg10 mi
11:53 AM61 °FPartly sunny.17 mph25%29.62 "Hg10 mi
10:53 AM59 °FSunny.9 mph26%29.64 "Hg10 mi
9:53 AM60 °FSunny.14 mph27%29.63 "Hg10 mi
8:53 AM55 °FSunny.6 mph31%29.65 "Hg10 mi
7:53 AM51 °FSunny.5 mph33%29.62 "Hg10 mi
6:53 AM50 °FClear.8 mph29%29.58 "Hg10 mi
5:53 AM51 °FClear.13 mph29%29.53 "Hg10 mi
4:53 AM53 °FClear.5 mph28%29.52 "Hg10 mi
3:53 AM51 °FClear.9 mph35%29.53 "Hg10 mi
2:53 AM50 °FClear.6 mph32%29.54 "Hg10 mi
1:53 AM46 °FClear.9 mph37%29.58 "Hg10 mi
12:53 AM45 °FClear.10 mph38%29.60 "Hg10 mi
11:53 PM
Tue, Mar 31
49 °FClear.9 mph35%29.61 "Hg10 mi
10:53 PM51 °FClear.6 mph29%29.62 "Hg10 mi
9:53 PM52 °FClear.6 mph27%29.66 "Hg10 mi
8:53 PM53 °FPassing clouds.7 mph24%29.70 "Hg10 mi
7:53 PM60 °FSunny.6 mph15%29.70 "Hg10 mi
6:53 PM67 °FSunny.12 mph11%29.71 "Hg10 mi
5:53 PM71 °FSunny.12 mph10%29.68 "Hg10 mi
4:53 PM69 °FSunny.15 mph12%29.72 "Hg10 mi
Weather by CustomWeather, © 2015

See weather overviewHow to use our weather pages